| time (UTC) | temp F | wind direction | speed MPH | gust MPH | rain 1hr in | rain 24hr in | rain mn in | humidity % | barometer mb |
| 20260906110028 | 62 | 217 | 0.0 | 0.0 | 0.00 | 0.00 | 0.00 | 100 | 1019.2 |
| 20260906104521 | 62 | 227 | 0.0 | 0.0 | 0.00 | 0.00 | 0.00 | 100 | 1019.0 |
| 20260906103025 | 62 | 228 | 0.0 | 0.0 | 0.00 | 0.00 | 0.00 | 100 | 1019.0 |
| 20260906101520 | 62 | 227 | 0.0 | 0.0 | 0.00 | 0.00 | 0.00 | 100 | 1018.8 |
| 20260906100026 | 62 | 227 | 0.0 | 0.0 | 0.00 | 0.00 | 0.00 | 100 | 1018.7 |
| 20260906094511 | 62 | 228 | 0.0 | 0.0 | 0.00 | 0.00 | 0.00 | 100 | 1018.7 |
| 20260906093009 | 62 | 338 | 0.0 | 0.0 | 0.00 | 0.00 | 0.00 | 100 | 1018.2 |
| 20260906091504 | 63 | 341 | 0.0 | 0.0 | 0.00 | 0.00 | 0.00 | 100 | 1018.3 |
| 20260906090108 | 62 | 342 | 0.0 | 0.0 | 0.00 | 0.00 | 0.00 | 100 | 1018.6 |
| 20260906084611 | 62 | 341 | 0.0 | 0.0 | 0.00 | 0.00 | 0.00 | 100 | 1018.7 |
| 20260906083108 | 62 | 341 | 0.0 | 0.0 | 0.00 | 0.00 | 0.00 | 100 | 1018.8 |
| 20260906081608 | 62 | 341 | 0.0 | 0.0 | 0.00 | 0.00 | 0.00 | 100 | 1018.6 |
| 20260906080110 | 61 | 341 | 0.0 | 0.0 | 0.00 | 0.00 | 0.00 | 100 | 1018.5 |
| 20260906074608 | 61 | 340 | 0.0 | 0.0 | 0.00 | 0.00 | 0.00 | 100 | 1018.7 |
| 20260906073103 | 62 | 341 | 0.0 | 0.0 | 0.00 | 0.00 | 0.00 | 100 | 1018.7 |
| 20260906071601 | 62 | 341 | 0.0 | 0.0 | 0.00 | 0.00 | 0.00 | 100 | 1018.8 |
| 20260906070031 | 62 | 341 | 0.0 | 0.0 | 0.00 | 0.00 | 0.00 | 100 | 1018.9 |
| 20260906064517 | 62 | 341 | 0.0 | 0.0 | 0.00 | 0.00 | 0.00 | 100 | 1018.8 |
| 20260906063008 | 62 | 18 | 0.0 | 0.0 | 0.00 | 0.00 | 0.00 | 100 | 1018.8 |
| 20260906061505 | 62 | 20 | 0.0 | 0.0 | 0.00 | 0.00 | 0.00 | 100 | 1018.6 |
| 20260906060109 | 63 | 20 | 0.0 | 0.0 | 0.00 | 0.00 | 0.00 | 100 | 1018.4 |
| 20260906054602 | 63 | 357 | 0.0 | 0.0 | 0.00 | 0.00 | 0.00 | 100 | 1018.4 |
| 20260906053057 | 63 | 355 | 0.0 | 0.0 | 0.00 | 0.00 | 0.00 | 100 | 1018.5 |
| 20260906051607 | 63 | 356 | 0.0 | 0.0 | 0.00 | 0.00 | 0.00 | 100 | 1018.5 |
| 20260906050045 | 64 | 356 | 0.0 | 0.0 | 0.00 | 0.00 | 0.00 | 100 | 1018.6 |
| 20260906044549 | 64 | 354 | 0.0 | 0.0 | 0.00 | 0.00 | 0.00 | 100 | 1018.7 |
| 20260906043035 | 64 | 355 | 0.0 | 0.0 | 0.00 | 0.00 | 0.00 | 100 | 1018.5 |
| 20260906041515 | 65 | 359 | 0.0 | 0.0 | 0.00 | 0.00 | 0.00 | 100 | 1018.2 |
| 20260906040037 | 65 | 353 | 0.0 | 0.0 | 0.00 | 0.00 | 0.00 | 100 | 1018.3 |
| 20260906034620 | 65 | 352 | 0.0 | 1.0 | 0.00 | 0.00 | 0.00 | 100 | 1018.3 |
| 20260906033028 | 65 | 79 | 0.0 | 0.0 | 0.00 | 0.00 | 0.00 | 100 | 1017.8 |
| 20260906031526 | 66 | 79 | 0.0 | 0.0 | 0.00 | 0.00 | 0.00 | 100 | 1017.6 |
| 20260906030009 | 66 | 79 | 0.0 | 0.0 | 0.00 | 0.00 | 0.00 | 100 | 1017.5 |
| 20260906024503 | 67 | 79 | 0.0 | 0.0 | 0.00 | 0.00 | 0.00 | 100 | 1017.2 |
| 20260906023001 | 67 | 79 | 0.0 | 0.0 | 0.00 | 0.00 | 0.00 | 99 | 1017.4 |
| 20260906021608 | 67 | 79 | 0.0 | 0.0 | 0.00 | 0.00 | 0.00 | 99 | 1017.2 |
| 20260906020106 | 68 | 80 | 0.0 | 0.0 | 0.00 | 0.00 | 0.00 | 97 | 1016.9 |
| 20260906014601 | 69 | 80 | 0.0 | 0.0 | 0.00 | 0.00 | 0.00 | 96 | 1016.7 |
| 20260906013049 | 69 | 80 | 0.0 | 0.0 | 0.00 | 0.00 | 0.00 | 96 | 1016.5 |
| 20260906011551 | 70 | 82 | 0.0 | 0.0 | 0.00 | 0.00 | 0.00 | 95 | 1015.9 |
| 20260906010046 | 71 | 67 | 0.0 | 2.0 | 0.00 | 0.00 | 0.00 | 94 | 1015.6 |
| 20260906004535 | 71 | 82 | 1.0 | 6.0 | 0.00 | 0.00 | 0.00 | 93 | 1015.9 |
| 20260906003022 | 72 | 108 | 2.0 | 6.0 | 0.00 | 0.00 | 0.00 | 91 | 1016.1 |
| 20260906001501 | 73 | 53 | 2.0 | 11.0 | 0.00 | 0.00 | 0.00 | 89 | 1016.3 |
| 20260905234552 | 76 | 54 | 1.0 | 5.0 | 0.00 | 0.00 | 0.00 | 88 | 1016.1 |
| 20260905233049 | 76 | 94 | 3.0 | 8.0 | 0.00 | 0.00 | 0.00 | 88 | 1016.1 |
| 20260905231530 | 77 | 105 | 1.0 | 8.0 | 0.00 | 0.00 | 0.00 | 87 | 1016.3 |
| 20260905230031 | 78 | 66 | 3.0 | 9.0 | 0.00 | 0.00 | 0.00 | 84 | 1016.2 |
| 20260905224544 | 79 | 79 | 2.0 | 6.0 | 0.00 | 0.00 | 0.00 | 81 | 1016.0 |
| 20260905223118 | 80 | 65 | 1.0 | 5.0 | 0.00 | 0.00 | 0.00 | 80 | 1016.0 |
| 20260905221604 | 81 | 60 | 1.0 | 4.0 | 0.00 | 0.00 | 0.00 | 77 | 1015.9 |
| 20260905220045 | 81 | 23 | 2.0 | 4.0 | 0.00 | 0.00 | 0.00 | 76 | 1016.0 |
| 20260905214543 | 80 | 330 | 2.0 | 6.0 | 0.00 | 0.00 | 0.00 | 79 | 1015.9 |
| 20260905213128 | 80 | 69 | 4.0 | 7.0 | 0.00 | 0.00 | 0.00 | 77 | 1015.8 |
| 20260905211539 | 81 | 330 | 1.0 | 7.0 | 0.00 | 0.00 | 0.00 | 79 | 1015.8 |
| 20260905210002 | 80 | 46 | 1.0 | 3.0 | 0.00 | 0.00 | 0.00 | 77 | 1016.0 |
| 20260905204606 | 80 | 294 | 1.0 | 3.0 | 0.00 | 0.00 | 0.00 | 78 | 1016.3 |
| 20260905203052 | 80 | 306 | 2.0 | 4.0 | 0.00 | 0.00 | 0.00 | 78 | 1016.3 |
| 20260905201540 | 79 | 77 | 0.0 | 3.0 | 0.00 | 0.00 | 0.00 | 82 | 1016.2 |
| 20260905200029 | 78 | 13 | 2.0 | 5.0 | 0.00 | 0.00 | 0.00 | 83 | 1016.1 |
| 20260905194508 | 78 | 75 | 1.0 | 6.0 | 0.00 | 0.00 | 0.00 | 82 | 1016.4 |
| 20260905193114 | 78 | 356 | 0.0 | 0.0 | 0.00 | 0.00 | 0.00 | 83 | 1016.5 |
| 20260905191608 | 79 | 29 | 2.0 | 4.0 | 0.00 | 0.00 | 0.00 | 81 | 1016.6 |
| 20260905190051 | 78 | 31 | 1.0 | 7.0 | 0.00 | 0.00 | 0.00 | 82 | 1016.5 |
| 20260905184550 | 78 | 66 | 0.0 | 4.0 | 0.00 | 0.00 | 0.00 | 83 | 1016.7 |
| 20260905183016 | 78 | 75 | 0.0 | 3.0 | 0.00 | 0.00 | 0.00 | 87 | 1016.8 |
| 20260905181503 | 78 | 65 | 0.0 | 4.0 | 0.00 | 0.00 | 0.00 | 86 | 1017.0 |
| 20260905180109 | 77 | 141 | 0.0 | 2.0 | 0.00 | 0.00 | 0.00 | 89 | 1016.9 |
| 20260905174556 | 75 | 74 | 0.0 | 6.0 | 0.00 | 0.00 | 0.00 | 90 | 1016.9 |
| 20260905173105 | 75 | 63 | 1.0 | 6.0 | 0.00 | 0.00 | 0.00 | 91 | 1016.9 |
| 20260905171536 | 75 | 75 | 0.0 | 3.0 | 0.00 | 0.00 | 0.00 | 91 | 1017.1 |
| 20260905170021 | 75 | 76 | 0.0 | 3.0 | 0.00 | 0.00 | 0.00 | 91 | 1017.1 |
| 20260905164613 | 74 | 351 | 1.0 | 4.0 | 0.00 | 0.00 | 0.00 | 92 | 1017.3 |
| 20260905163114 | 74 | 79 | 0.0 | 1.0 | 0.00 | 0.00 | 0.00 | 93 | 1017.4 |
| 20260905161605 | 73 | 360 | 0.0 | 4.0 | 0.00 | 0.00 | 0.00 | 94 | 1017.3 |
| 20260905160038 | 73 | 23 | 0.0 | 2.0 | 0.00 | 0.00 | 0.00 | 95 | 1017.1 |
| 20260905154527 | 72 | 58 | 0.0 | 2.0 | 0.00 | 0.00 | 0.00 | 97 | 1017.1 |
| 20260905153009 | 72 | 359 | 0.0 | 2.0 | 0.00 | 0.00 | 0.00 | 98 | 1017.2 |
| 20260905151608 | 71 | 98 | 1.0 | 6.0 | 0.00 | 0.00 | 0.00 | 98 | 1016.9 |
| 20260905144545 | 71 | 84 | 0.0 | 6.0 | 0.00 | 0.00 | 0.00 | 99 | 1016.6 |
| 20260905143034 | 71 | 75 | 0.0 | 6.0 | 0.00 | 0.00 | 0.00 | 100 | 1016.3 |
| 20260905141512 | 71 | 58 | 2.0 | 6.0 | 0.00 | 0.00 | 0.00 | 99 | 1016.2 |
| 20260905140000 | 71 | 91 | 0.0 | 3.0 | 0.00 | 0.00 | 0.00 | 100 | 1016.0 |
| 20260905134605 | 71 | 308 | 2.0 | 5.0 | 0.00 | 0.00 | 0.00 | 100 | 1015.8 |
| 20260905133056 | 71 | 10 | 1.0 | 7.0 | 0.00 | 0.00 | 0.00 | 100 | 1015.5 |
| 20260905131541 | 71 | 38 | 2.0 | 6.0 | 0.00 | 0.00 | 0.00 | 100 | 1015.6 |
| 20260905130133 | 71 | 71 | 0.0 | 3.0 | 0.00 | 0.00 | 0.00 | 100 | 1015.2 |
| 20260905124522 | 71 | 21 | 0.0 | 5.0 | 0.00 | 0.00 | 0.00 | 100 | 1015.3 |
| 20260905123113 | 72 | 63 | 1.0 | 4.0 | 0.00 | 0.00 | 0.00 | 100 | 1015.5 |
| 20260905121601 | 72 | 306 | 0.0 | 4.0 | 0.00 | 0.00 | 0.00 | 100 | 1015.0 |
| 20260905120051 | 72 | 360 | 0.0 | 2.0 | 0.00 | 0.04 | 0.00 | 100 | 1015.2 |
| 20260905114539 | 71 | 20 | 1.0 | 5.0 | 0.00 | 0.04 | 0.00 | 100 | 1014.7 |
| 20260905113025 | 72 | 52 | 1.0 | 5.0 | 0.00 | 0.04 | 0.00 | 100 | 1014.2 |
| 20260905111506 | 72 | 359 | 1.0 | 4.0 | 0.00 | 0.04 | 0.00 | 100 | 1014.0 |